This is the latest recevied weather packets stored in our database for station/object KR4KUV. If no packets are shown the sender has not sent any weather packets the latest 10 day(s).
| Time | Temp. | Humidity | Pressure | Rain* | Wind** | Luminosity | Snow |
|---|---|---|---|---|---|---|---|
| 1787697327 | 30° C | 59% | 1018.6 hPa | 0 mm | - | 119 W/m² | - |
| 1787697022 | 30° C | 55% | 1018.7 hPa | 0 mm | - | 138 W/m² | - |
| 1787696717 | 30° C | 57% | 1018.7 hPa | 0 mm | - | 152 W/m² | - |
| 1787696413 | 30° C | 55% | 1018.6 hPa | 0 mm | - | 171 W/m² | - |
| 1787696109 | 29.44° C | 59% | 1018.7 hPa | 0 mm | - | 174 W/m² | - |
| 1787695807 | 28.89° C | 54% | 1018.7 hPa | 0 mm | - | 188 W/m² | - |
| 1787695503 | 29.44° C | 55% | 1018.6 hPa | 0 mm | - | 74 W/m² | - |
| 1787695199 | 29.44° C | 53% | 1018.6 hPa | 0 mm | - | 79 W/m² | - |
| 1787694897 | 30° C | 55% | 1018.5 hPa | 0 mm | - | 219 W/m² | - |
| 1787694593 | 30° C | 54% | 1018.5 hPa | 0 mm | - | 225 W/m² | - |
| 1787694293 | 30.56° C | 51% | 1018.5 hPa | 0 mm | - | 262 W/m² | - |
| 1787693988 | 30.56° C | 53% | 1018.2 hPa | 0 mm | - | 276 W/m² | - |
| 1787693684 | 30.56° C | 56% | 1018.3 hPa | 0 mm | - | 296 W/m² | - |
| 1787693380 | 30.56° C | 52% | 1018.1 hPa | 0 mm | - | 315 W/m² | - |
| 1787693076 | 30° C | 52% | 1018.3 hPa | 0 mm | - | 331 W/m² | - |
| 1787692772 | 30.56° C | 52% | 1018.4 hPa | 0 mm | - | 350 W/m² | - |
| 1787692466 | 31.11° C | 54% | 1018.4 hPa | 0 mm | - | 366 W/m² | - |
| 1787692165 | 31.11° C | 50% | 1018.2 hPa | 0 mm | - | 381 W/m² | - |
| 1787691860 | 31.11° C | 51% | 1018.2 hPa | 0 mm | - | 399 W/m² | - |
| 1787691558 | 30.56° C | 52% | 1018.2 hPa | 0 mm | - | 406 W/m² | - |
| 1787691258 | 30.56° C | 50% | 1018.2 hPa | 0 mm | - | 415 W/m² | - |
| 1787690953 | 31.11° C | 50% | 1018.3 hPa | 0 mm | - | 439 W/m² | - |
| 1787690648 | 30° C | 53% | 1018.2 hPa | 0 mm | - | 455 W/m² | - |
| 1787690343 | 30.56° C | 53% | 1018 hPa | 0 mm | - | 473 W/m² | - |
| 1787690039 | 32.22° C | 55% | 1018.1 hPa | 0 mm | - | 491 W/m² | - |
* Rain latest hour (hover to see other rain measurements)
** Current wind speed in m/s (hover to see current wind gust speed)